Location: Carrigahorig
(53.0625°N, 8.1439°W)
Time: 00:40:40
(UTC+00:00)

Meteor 1-20 Rocket - Pass Details

Date: 15 May 2026
Orbit: 818 x 890 km, 81.2° (Epoch: 9 June)

Event Time Altitude Azimuth Distance (km) Brightness Sun altitude
Rises 21:27:11 0° 346° (NNW) 3,396 8.6 -7.9°
Reaches altitude 10° 21:29:35 10° 346° (NNW) 2,467 7.7 -8.2°
Maximum altitude 21:35:12 85° 259° (W) 861 4.3 -8.7°
Drops below altitude 10° 21:40:53 10° 171° (S) 2,498 6.1 -9.3°
Enters shadow 21:41:34 - 171° (S) 2,762 6.4 -9.3°
